"Pseudo-MPEC" for P22bftC

Created 2025 Jul 7 20:35:08 UT using Find_Orb

Click here for an explanation of pseudo-MPECs

 
 Astrometry: 
     P22bftC* C2025 06 29.58595323 45 23.705+15 46 42.55   ~6TF5 21.55wXNEOCPF52
     P22bftC  C2025 06 29.59434023 45 24.461+15 46 51.29   ~6TF5 21.52wXNEOCPF52
     P22bftC  C2025 06 29.60284623 45 25.238+15 47 00.41   ~6TF5 21.70wXNEOCPF52
     P22bftC |C2025 06 30.34810023 46 32.770+16 00 04.90   ~6U9Z 21.9 GVNEOCP807
     P22bftC |C2025 06 30.35555023 46 33.410+16 00 12.50   ~6U9Z 21.4 GVNEOCP807
     P22bftC |C2025 06 30.36300023 46 34.060+16 00 19.60   ~6U9Z 21.8 GVNEOCP807
     P22bftC KC2025 06 30.38663123 46 36.462+16 00 36.00   ~6U9o 21.91GVNEOCPI52
     P22bftC KC2025 06 30.39058323 46 36.786+16 00 41.40   ~6U9o 21.18GVNEOCPI52
     P22bftC KC2025 06 30.39311723 46 36.977+16 00 45.04   ~6U9o 21.79GVNEOCPI52
     P22bftC KC2025 06 30.39718123 46 37.294+16 00 48.64   ~6U9o 21.86GVNEOCPI52
     P22bftC 2C2025 07 05.59352023 54 11.149+17 29 23.01   ~76Ko 22.7 GWNEOCPT12
     P22bftC 2C2025 07 05.59561223 54 11.316+17 29 25.14   ~76Ko 22.7 GWNEOCPT12

Station data:
(807) Cerro Tololo Observatory, La Serena  (S30.169133 W70.805900)  Chile.
   Observer R. Holmes. 0.61-m f/6.5 astrograph + CCD.
(F52) Pan-STARRS 2, Haleakala  (N20.707382 W156.255910)  US/Hawaii.
   Observers J. Bulger, T. Dukes, T. Lowe, A. Schultz, M. Willman. Measurers
   K. Chambers, S. Chastel, T. de Boer, L. Denneau, J. Fairlamb, H.
   Flewelling, M. Huber, C.-C. Lin, E. Magnier, Y. Ramanjooloo, R. Wainscoat,
   R. Weryk. 1.8-m Ritchey-Chrétien + CCD.
(I52) Steward Observatory, Mt. Lemmon Station  (N32.442570 W110.788920)
   US/Arizona.  Observers T. A. Pruyne, B. M. Africano, E. J. Christensen, G.
   A. Farneth, D. C. Fuls, A. R. Gibbs, A. D. Grauer, H. Gröller, J. A.
   Johnson, R. A. Kowalski, S. M. Larson, G. J. Leonard, D. Rankin, R. L.
   Seaman, F. C. Shelly, K. W. Wierzchoś. 1.0-m prime focus + CCD.
(T12) Mauna Kea-UH/Tholen NEO Follow-Up (2.24-m)  (N19.822991 W155.469434)
   US/Hawaii.  Observer Y. Ramanjooloo. 2.24-m f/10.1 University of Hawaii
   reflector.

Orbital elements:  P22bftC
   Perihelion 2025 Jun 2.90597 +/- 4.74 TT = 21:44:35 (JD 2460829.40597)
Epoch 2025 Jul  5.0 TT = JDT 2460861.5   Earth MOID: 0.7031      AutoNEOCP
M   9.09122573 +/- 2.8              (J2000 ecliptic)
n   0.28326842 +/- 0.0477           Peri.   68.53319 +/- 1.3
a   2.29616948 +/- 0.258            Node   243.16879 +/- 2.1
e   0.2709215 +/- 0.0665            Incl.   11.99573 +/- 0.19
P   3.47941                H 18.89  G  0.15   U 10.7
q 1.67408773 +/- 0.0355    Q 2.91825122 +/- 0.48
From 12 observations 2025 June 29-July 5; mean residual 0".45
Residuals in arcseconds: 
250629 F52  .25-  .01-    250630 807  .36-  .20+    250630 I52  .04+  .98+    
250629 F52  .04-  .09-    250630 807  .41-  .49-    250630 I52  .57-  .31+    
250629 F52  .32+  .09+    250630 I52  .89+  1.3-    250705 T12  .03+  .01-    
250630 807  .16-  .39+    250630 I52  .51+  .00     250705 T12  .03-  .01+    

Ephemerides (geocentric):
Date (UTC) HH   RA             Dec           delta  r     elong  mag " sig PA
---- --------  ------------   ------------  ------ ------ -----  --- --------
2025 07 07 21  23 57 20.669   +18 07 07.85  1.2107 1.6914  98.4 21.9 1.59 125
2025 07 07 22  23 57 24.075   +18 07 48.80  1.2105 1.6914  98.5 21.9 1.63 125
2025 07 07 23  23 57 27.479   +18 08 29.73  1.2102 1.6915  98.5 21.9 1.66 125
2025 07 08 00  23 57 30.882   +18 09 10.65  1.2099 1.6915  98.5 21.9 1.69 126
2025 07 08 01  23 57 34.282   +18 09 51.55  1.2096 1.6915  98.5 21.9 1.72 126
2025 07 08 02  23 57 37.680   +18 10 32.43  1.2094 1.6916  98.5 21.9 1.76 126
2025 07 08 03  23 57 41.076   +18 11 13.30  1.2091 1.6916  98.6 21.9 1.79 126
2025 07 08 04  23 57 44.470   +18 11 54.16  1.2088 1.6917  98.6 21.9 1.82 127
2025 07 08 05  23 57 47.861   +18 12 35.00  1.2085 1.6917  98.6 21.9 1.86 127
2025 07 08 06  23 57 51.251   +18 13 15.82  1.2083 1.6917  98.6 21.9 1.89 127
2025 07 08 07  23 57 54.639   +18 13 56.63  1.2080 1.6918  98.6 21.9 1.93 127
2025 07 08 08  23 57 58.024   +18 14 37.43  1.2077 1.6918  98.7 21.9 1.96 128
2025 07 08 09  23 58 01.407   +18 15 18.21  1.2075 1.6919  98.7 21.9 2.00 128
2025 07 08 10  23 58 04.789   +18 15 58.97  1.2072 1.6919  98.7 21.9 2.03 128
2025 07 08 11  23 58 08.168   +18 16 39.72  1.2069 1.6919  98.7 21.9 2.07 128
2025 07 08 12  23 58 11.545   +18 17 20.46  1.2066 1.6920  98.8 21.9 2.10 129
2025 07 08 13  23 58 14.920   +18 18 01.18  1.2064 1.6920  98.8 21.9 2.14 129
2025 07 08 14  23 58 18.292   +18 18 41.88  1.2061 1.6921  98.8 21.9 2.18 129
2025 07 08 15  23 58 21.663   +18 19 22.57  1.2058 1.6921  98.8 21.9 2.21 129
2025 07 08 16  23 58 25.032   +18 20 03.24  1.2055 1.6922  98.8 21.9 2.25 129
2025 07 08 17  23 58 28.398   +18 20 43.90  1.2053 1.6922  98.9 21.9 2.29 130
2025 07 08 18  23 58 31.762   +18 21 24.54  1.2050 1.6922  98.9 21.9 2.33 130
2025 07 08 19  23 58 35.125   +18 22 05.17  1.2047 1.6923  98.9 21.9 2.37 130
2025 07 08 20  23 58 38.485   +18 22 45.78  1.2045 1.6923  98.9 21.9 2.41 130
2025 07 08 21  23 58 41.843   +18 23 26.38  1.2042 1.6924  98.9 21.9 2.44 130
2025 07 08 22  23 58 45.198   +18 24 06.96  1.2039 1.6924  99.0 21.9 2.48 130
2025 07 08 23  23 58 48.552   +18 24 47.52  1.2036 1.6924  99.0 21.9 2.52 131
2025 07 09 00  23 58 51.904   +18 25 28.07  1.2034 1.6925  99.0 21.9 2.56 131
2025 07 09 01  23 58 55.253   +18 26 08.61  1.2031 1.6925  99.0 21.9 2.60 131
2025 07 09 02  23 58 58.600   +18 26 49.13  1.2028 1.6926  99.0 21.9 2.64 131
2025 07 09 03  23 59 01.946   +18 27 29.63  1.2026 1.6926  99.1 21.9 2.68 131
2025 07 09 04  23 59 05.289   +18 28 10.12  1.2023 1.6927  99.1 21.9 2.73 131
2025 07 09 05  23 59 08.630   +18 28 50.59  1.2020 1.6927  99.1 21.9 2.77 131
2025 07 09 06  23 59 11.968   +18 29 31.05  1.2017 1.6927  99.1 21.9 2.81 132
2025 07 09 07  23 59 15.305   +18 30 11.49  1.2015 1.6928  99.2 21.9 2.85 132
2025 07 09 08  23 59 18.639   +18 30 51.92  1.2012 1.6928  99.2 21.9 2.89 132
2025 07 09 09  23 59 21.972   +18 31 32.33  1.2009 1.6929  99.2 21.9 2.94 132
2025 07 09 10  23 59 25.302   +18 32 12.73  1.2006 1.6929  99.2 21.9 2.98 132
2025 07 09 11  23 59 28.630   +18 32 53.11  1.2004 1.6930  99.2 21.9 3.02 132
2025 07 09 12  23 59 31.956   +18 33 33.47  1.2001 1.6930  99.3 21.9 3.06 132
2025 07 09 13  23 59 35.279   +18 34 13.82  1.1998 1.6930  99.3 21.9 3.11 133
2025 07 09 14  23 59 38.601   +18 34 54.15  1.1996 1.6931  99.3 21.9 3.15 133
2025 07 09 15  23 59 41.920   +18 35 34.47  1.1993 1.6931  99.3 21.9 3.20 133
2025 07 09 16  23 59 45.238   +18 36 14.77  1.1990 1.6932  99.3 21.9 3.24 133
2025 07 09 17  23 59 48.553   +18 36 55.06  1.1987 1.6932  99.4 21.9 3.29 133
2025 07 09 18  23 59 51.866   +18 37 35.33  1.1985 1.6933  99.4 21.9 3.33 133
2025 07 09 19  23 59 55.177   +18 38 15.59  1.1982 1.6933  99.4 21.9 3.38 133
2025 07 09 20  23 59 58.485   +18 38 55.83  1.1979 1.6933  99.4 21.9 3.42 133